Flag for U.S.A. Weather past 2 weeks in Dallas, Texas, U.S.A.

Now
63 °F

Fog.


Feels Like: 63 °F
Forecast: 64 / 76 °F
Wind: 9 mph from Southeast

Location: Dallas Love Field


UV Index: 0 (Low)

Visibility: 5 mi


Pressure: 30.02 "Hg

Humidity: 90%

Dew point: 60 °F

Location of DallasLocation

Historic Weather in Dallas

°F

Dallas temperature yesterday

Maximum temperature yesterday: 78 °F (at 12:53 PM)
Minimum temperature yesterday: 63 °F (at 10:53 PM)
Average temperature yesterday: 69 °F

Past Weeks' High & Low Weather Summary

 TemperatureHumidityPressure
High86 °F (Apr 10, 3:53 PM)93% (Apr 6, 8:53 PM)30.33 "Hg (Apr 6, 8:53 PM)
Low38 °F (Apr 15, 5:53 AM)15% (Apr 15, 3:53 PM)29.57 "Hg (Apr 13, 7:53 PM)
Average63 °F59%30.00 "Hg
* Reported Apr 6 1:53 AM — Apr 21 1:53 AM, Dallas, Weather by CustomWeather, © 2014

Note: Actual official high and low records may vary slightly from our data, if they occured in-between our weather recording intervals... More about our weather records

Advertising

Historic Weather Conditions — Data for Previous 24 hours

 ConditionsComfort  
Time TempWeatherWind HumidityBarometerVisibility
1:53 AM
Apr 21
63 °FFog.9 mph90%30.02 "Hg5 mi
12:53 AM63 °FThunderstorms. Fog.6 mph93%30.04 "Hg4 mi
11:53 PM
Apr 20
63 °FOvercast.13 mph90%30.03 "Hg7 mi
10:53 PM63 °FLight rain. Overcast.3 mph93%30.06 "Hg7 mi
9:53 PM64 °FLight rain. Mostly cloudy.5 mph90%30.06 "Hg8 mi
8:59 PM64 °FRain. Fog.No wind90%30.06 "Hg4 mi
7:59 PM64 °FStrong thunderstorms. Fog.8 mph90%30.06 "Hg1 mi
6:53 PM73 °FMostly cloudy.6 mph50%30.03 "Hg10 mi
5:53 PM74 °FMore clouds than sun.14 mph48%30.01 "Hg10 mi
4:53 PM75 °FMostly cloudy.9 mph43%30.02 "Hg10 mi
3:53 PM75 °FOvercast.14 mph39%30.05 "Hg10 mi
2:53 PM78 °FMostly cloudy.13 mph37%30.06 "Hg10 mi
1:53 PM78 °FBroken clouds.14 mph40%30.08 "Hg10 mi
12:53 PM78 °FBroken clouds.17 mph39%30.10 "Hg10 mi
11:53 AM77 °FBroken clouds.16 mph44%30.11 "Hg10 mi
10:53 AM74 °FCloudy.13 mph50%30.11 "Hg10 mi
9:53 AM70 °FCloudy.10 mph59%30.09 "Hg10 mi
8:53 AM69 °FMore clouds than sun.3 mph61%30.11 "Hg10 mi
7:53 AM67 °FCloudy.6 mph63%30.10 "Hg10 mi
6:53 AM65 °FLight rain. Passing clouds.10 mph73%30.08 "Hg10 mi
5:53 AM65 °FPassing clouds.8 mph70%30.07 "Hg10 mi
4:53 AM65 °FMostly cloudy.10 mph68%30.08 "Hg10 mi
3:53 AM65 °FMostly cloudy.9 mph66%30.07 "Hg10 mi
Weather by CustomWeather, © 2014

See weather overview